Hourly Data Report for October 03, 2017

All times are specified in Local Standard Time (LST). Add 1 hour to adjust for Daylight Saving Time where and when it is observed.

INGONISH BEACH RCS
NOVA SCOTIA

46°39'46.001" N
60°24'23.000" W
10.00 m
8202502
71027
XIB

Download Data

Hourly Data (October 2017)
Hourly Data Report for October 3, 2017
Temp Definition
°C
Dew Point Temp Definition
°C
Rel Hum Definition
%
Wind Dir Definition
10's deg

Wind Spd Definition
km/h
Visibility Definition
km
Stn Press Definition
kPa
Hmdx Definition


Wind Chill Definition


Weather Definition


TIME
00:00 9.5 2.4 61 1 10   102.86     LegendNANA
01:00 8.4 4.0 74 35 5   102.90     LegendNANA
02:00 7.5 3.0 73 34 4   102.94     LegendNANA
03:00 8.3 3.1 70 33 4   103.00     LegendNANA
04:00 7.7 2.4 69 30 2   103.07     LegendNANA
05:00 7.1 2.3 71 29 3   103.12     LegendNANA
06:00 7.4 1.2 65 31 4   103.19     LegendNANA
07:00 7.3 0.9 64 31 3   103.24     LegendNANA
08:00 9.5 1.5 58 35 4   103.27     LegendNANA
09:00 11.7 1.3 49 36 9   103.28     LegendNANA
10:00 11.5 1.0 48 1 9   103.27     LegendNANA
11:00 12.5 0.5 44 2 6   103.23     LegendNANA
12:00 13.7 0.0 39 35 8   103.20     LegendNANA
13:00 14.0 0.6 40 34 5   103.13     LegendNANA
14:00 13.8 1.6 44 27 6   103.12     LegendNANA
15:00 11.7 2.3 52 28 5   103.07     LegendNANA
16:00 11.3 0.8 49 29 7   102.98     LegendNANA
17:00 9.8 2.5 60 8 5   102.96     LegendNANA
18:00 8.3 2.6 68 28 4   103.00     LegendNANA
19:00 5.8 2.4 79 26 3   102.99     LegendNANA
20:00 4.6 2.4 86 23 3   102.93     LegendNANA
21:00 4.4 2.5 87 25 1   102.85     LegendNANA
22:00 4.0 2.3 89 25 3   102.81     LegendNANA
23:00 3.7 2.1 90 27 3   102.71     LegendNANA

Notes on Data Quality.

Legend

  • E = Estimated
  • M = Missing
  • NA = Not Available
  • ‡ = Partner data that is not subject to review by the National Climate Archives
Date modified: